Time,TemperatureF,DewpointF,PressureIn,WindDirection,WindDirectionDegrees,WindSpeedMPH,WindSpeedGustMPH,Humidity,HourlyPrecipIn,Conditions,Clouds,dailyrainin,SoftwareType,DateUTC
2013-03-16 00:04:00,64.7,29.0,29.84,East,101,0.0,2.0,26,0.00,,SKC,0.00,VWS V14.01,2013-03-16 07:04:00,
2013-03-16 00:09:00,64.6,28.0,29.84,East,101,0.0,2.0,25,0.00,,SKC,0.00,VWS V14.01,2013-03-16 07:09:00,
2013-03-16 00:14:00,64.8,28.2,29.84,East,101,0.0,2.0,25,0.00,,SKC,0.00,VWS V14.01,2013-03-16 07:14:00,
2013-03-16 00:19:00,64.1,28.5,29.84,East,99,0.0,6.0,26,0.00,,SKC,0.00,VWS V14.01,2013-03-16 07:19:00,
2013-03-16 00:24:00,63.9,28.4,29.84,East,100,0.0,6.0,26,0.00,,SKC,0.00,VWS V14.01,2013-03-16 07:24:00,
2013-03-16 00:29:00,63.4,28.9,29.84,East,99,0.0,6.0,27,0.00,,SKC,0.00,VWS V14.01,2013-03-16 07:29:00,
2013-03-16 00:34:00,63.1,29.5,29.84,East,100,0.0,0.0,28,0.00,,SKC,0.00,VWS V14.01,2013-03-16 07:34:00,
2013-03-16 00:39:00,62.6,28.2,29.84,East,100,1.0,1.0,27,0.00,,SKC,0.00,VWS V14.01,2013-03-16 07:39:00,
2013-03-16 00:44:00,62.3,27.9,29.84,SW,215,0.0,1.0,27,0.00,,SKC,0.00,VWS V14.01,2013-03-16 07:44:00,
2013-03-16 00:50:00,62.0,28.5,29.84,SSW,196,0.0,0.0,28,0.00,,SKC,0.00,VWS V14.01,2013-03-16 07:50:00,
2013-03-16 00:55:00,61.0,27.7,29.83,SSE,165,0.0,0.0,28,0.00,,SKC,0.00,VWS V14.01,2013-03-16 07:55:00,
2013-03-16 01:00:00,60.0,27.7,29.83,SSE,156,0.0,2.0,29,0.00,,SKC,0.00,VWS V14.01,2013-03-16 08:00:00,
2013-03-16 01:05:00,59.6,27.3,29.83,SSE,156,1.0,1.0,29,0.00,,SKC,0.00,VWS V14.01,2013-03-16 08:05:00,
2013-03-16 01:10:00,59.6,27.3,29.83,West,275,2.0,4.0,29,0.00,,SKC,0.00,VWS V14.01,2013-03-16 08:10:00,
2013-03-16 01:15:00,59.7,27.4,29.83,West,281,0.0,4.0,29,0.00,,SKC,0.00,VWS V14.01,2013-03-16 08:15:00,
2013-03-16 01:20:00,59.8,26.6,29.83,West,281,0.0,0.0,28,0.00,,SKC,0.00,VWS V14.01,2013-03-16 08:20:00,
2013-03-16 01:25:00,59.7,26.6,29.83,West,281,0.0,0.0,28,0.00,,SKC,0.00,VWS V14.01,2013-03-16 08:25:00,
2013-03-16 01:30:00,59.4,27.2,29.83,West,281,0.0,0.0,29,0.00,,SKC,0.00,VWS V14.01,2013-03-16 08:30:00,
2013-03-16 01:35:00,59.0,27.6,29.83,West,281,0.0,0.0,30,0.00,,SKC,0.00,VWS V14.01,2013-03-16 08:35:00,
2013-03-16 01:40:00,59.0,27.6,29.83,West,281,0.0,0.0,30,0.00,,SKC,0.00,VWS V14.01,2013-03-16 08:40:00,
2013-03-16 01:45:00,58.5,27.2,29.83,West,281,0.0,0.0,30,0.00,,SKC,0.00,VWS V14.01,2013-03-16 08:45:00,
2013-03-16 01:50:00,58.6,26.5,29.83,West,281,0.0,0.0,29,0.00,,SKC,0.00,VWS V14.01,2013-03-16 08:50:00,
2013-03-16 01:55:00,59.0,26.8,29.83,West,281,0.0,0.0,29,0.00,,SKC,0.00,VWS V14.01,2013-03-16 08:55:00,
2013-03-16 02:00:00,58.6,26.5,29.83,West,281,0.0,0.0,29,0.00,,SKC,0.00,VWS V14.01,2013-03-16 09:00:00,
2013-03-16 02:06:00,58.6,26.5,29.83,West,281,0.0,0.0,29,0.00,,SKC,0.00,VWS V14.01,2013-03-16 09:06:00,
2013-03-16 02:11:00,57.9,26.7,29.83,North,10,0.0,0.0,30,0.00,,SKC,0.00,VWS V14.01,2013-03-16 09:11:00,
2013-03-16 02:16:00,57.1,26.0,29.83,North,10,0.0,0.0,30,0.00,,SKC,0.00,VWS V14.01,2013-03-16 09:16:00,
2013-03-16 02:21:00,56.3,26.8,29.83,NNE,13,0.0,0.0,32,0.00,,SKC,0.00,VWS V14.01,2013-03-16 09:21:00,
2013-03-16 02:26:00,55.8,26.4,29.82,NE,38,0.0,0.0,32,0.00,,SKC,0.00,VWS V14.01,2013-03-16 09:26:00,
2013-03-16 02:31:00,55.9,25.7,29.82,ENE,66,0.0,2.0,31,0.00,,SKC,0.00,VWS V14.01,2013-03-16 09:31:00,
2013-03-16 02:36:00,55.9,26.5,29.82,ENE,66,0.0,0.0,32,0.00,,SKC,0.00,VWS V14.01,2013-03-16 09:36:00,
2013-03-16 02:41:00,55.9,25.7,29.82,ENE,66,0.0,0.0,31,0.00,,SKC,0.00,VWS V14.01,2013-03-16 09:41:00,
2013-03-16 02:46:00,56.2,26.0,29.82,ENE,66,0.0,1.0,31,0.00,,SKC,0.00,VWS V14.01,2013-03-16 09:46:00,
2013-03-16 02:52:00,56.1,25.9,29.82,ENE,66,0.0,0.0,31,0.00,,SKC,0.00,VWS V14.01,2013-03-16 09:52:00,
2013-03-16 02:57:00,56.1,25.9,29.82,ENE,66,0.0,0.0,31,0.00,,SKC,0.00,VWS V14.01,2013-03-16 09:57:00,
2013-03-16 03:02:00,55.8,26.4,29.82,ENE,66,0.0,0.0,32,0.00,,SKC,0.00,VWS V14.01,2013-03-16 10:02:00,
2013-03-16 03:07:00,55.5,26.1,29.82,ENE,66,0.0,0.0,32,0.00,,SKC,0.00,VWS V14.01,2013-03-16 10:07:00,
2013-03-16 03:12:00,55.1,25.8,29.82,ENE,66,0.0,1.0,32,0.00,,SKC,0.00,VWS V14.01,2013-03-16 10:12:00,
2013-03-16 03:17:00,54.9,26.4,29.82,ENE,71,0.0,0.0,33,0.00,,SKC,0.00,VWS V14.01,2013-03-16 10:17:00,
2013-03-16 03:22:00,54.6,26.1,29.82,East,82,0.0,1.0,33,0.00,,SKC,0.00,VWS V14.01,2013-03-16 10:22:00,
2013-03-16 03:27:00,54.4,25.9,29.81,East,82,0.0,1.0,33,0.00,,SKC,0.00,VWS V14.01,2013-03-16 10:27:00,
2013-03-16 03:32:00,54.3,25.8,29.81,East,82,0.0,0.0,33,0.00,,SKC,0.00,VWS V14.01,2013-03-16 10:32:00,
2013-03-16 03:37:00,54.5,26.0,29.81,East,82,0.0,0.0,33,0.00,,SKC,0.00,VWS V14.01,2013-03-16 10:37:00,
2013-03-16 03:43:00,54.5,26.0,29.81,East,82,0.0,0.0,33,0.00,,SKC,0.00,VWS V14.01,2013-03-16 10:43:00,
2013-03-16 03:48:00,54.8,26.3,29.81,East,82,0.0,0.0,33,0.00,,SKC,0.00,VWS V14.01,2013-03-16 10:48:00,
2013-03-16 03:53:00,54.9,26.4,29.81,East,82,0.0,0.0,33,0.00,,SKC,0.00,VWS V14.01,2013-03-16 10:53:00,
2013-03-16 03:58:00,54.7,26.2,29.81,East,82,0.0,0.0,33,0.00,,SKC,0.00,VWS V14.01,2013-03-16 10:58:00,
2013-03-16 04:03:00,54.4,26.6,29.81,ESE,123,0.0,2.0,34,0.00,,SKC,0.00,VWS V14.01,2013-03-16 11:03:00,
2013-03-16 04:08:00,54.0,26.3,29.81,ESE,123,0.0,2.0,34,0.00,,SKC,0.00,VWS V14.01,2013-03-16 11:08:00,
2013-03-16 04:13:00,53.9,26.9,29.81,ESE,123,0.0,2.0,35,0.00,,SKC,0.00,VWS V14.01,2013-03-16 11:13:00,
2013-03-16 04:18:00,53.8,27.5,29.81,ESE,123,0.0,0.0,36,0.00,,SKC,0.00,VWS V14.01,2013-03-16 11:18:00,
2013-03-16 04:23:00,53.5,27.2,29.81,ESE,123,0.0,0.0,36,0.00,,SKC,0.00,VWS V14.01,2013-03-16 11:23:00,
2013-03-16 04:28:00,53.2,27.0,29.81,ESE,123,0.0,0.0,36,0.00,,SKC,0.00,VWS V14.01,2013-03-16 11:28:00,
2013-03-16 04:33:00,52.7,27.2,29.81,ESE,123,0.0,0.0,37,0.00,,SKC,0.00,VWS V14.01,2013-03-16 11:33:00,
2013-03-16 04:38:00,52.3,27.5,29.81,ESE,123,0.0,0.0,38,0.00,,SKC,0.00,VWS V14.01,2013-03-16 11:38:00,
2013-03-16 04:43:00,51.8,27.0,29.81,ESE,122,0.0,0.0,38,0.00,,SKC,0.00,VWS V14.01,2013-03-16 11:43:00,
2013-03-16 04:48:00,51.7,27.6,29.81,SE,124,0.0,0.0,39,0.00,,SKC,0.00,VWS V14.01,2013-03-16 11:48:00,
2013-03-16 04:54:00,51.7,26.9,29.81,SE,124,0.0,0.0,38,0.00,,SKC,0.00,VWS V14.01,2013-03-16 11:54:00,
2013-03-16 04:58:00,51.9,27.1,29.81,SE,126,0.0,0.0,38,0.00,,SKC,0.00,VWS V14.01,2013-03-16 11:58:00,
2013-03-16 05:04:00,52.0,27.2,29.81,SE,126,0.0,0.0,38,0.00,,SKC,0.00,VWS V14.01,2013-03-16 12:04:00,
2013-03-16 05:09:00,51.8,27.0,29.81,SE,128,0.0,0.0,38,0.00,,SKC,0.00,VWS V14.01,2013-03-16 12:09:00,
2013-03-16 05:14:00,51.6,26.8,29.81,SE,130,0.0,1.0,38,0.00,,SKC,0.00,VWS V14.01,2013-03-16 12:14:00,
2013-03-16 05:19:00,51.4,27.3,29.81,SE,132,0.0,1.0,39,0.00,,SKC,0.00,VWS V14.01,2013-03-16 12:19:00,
2013-03-16 05:24:00,51.1,27.0,29.81,SE,133,0.0,1.0,39,0.00,,SKC,0.00,VWS V14.01,2013-03-16 12:24:00,
2013-03-16 05:29:00,51.0,26.9,29.81,SE,136,0.0,1.0,39,0.00,,SKC,0.00,VWS V14.01,2013-03-16 12:29:00,
2013-03-16 05:34:00,51.1,26.4,29.81,SE,138,0.0,0.0,38,0.00,,SKC,0.00,VWS V14.01,2013-03-16 12:34:00,
2013-03-16 05:39:00,51.5,26.8,29.81,SE,141,0.0,1.0,38,0.00,,SKC,0.00,VWS V14.01,2013-03-16 12:39:00,
2013-03-16 05:44:00,52.1,26.6,29.81,SSE,153,0.0,2.0,37,0.00,,SKC,0.00,VWS V14.01,2013-03-16 12:44:00,
2013-03-16 05:49:00,52.7,26.5,29.81,SSE,165,0.0,3.0,36,0.00,,SKC,0.00,VWS V14.01,2013-03-16 12:49:00,
2013-03-16 05:54:00,53.2,26.3,29.81,SSE,161,0.0,3.0,35,0.00,,SKC,0.00,VWS V14.01,2013-03-16 12:54:00,
2013-03-16 05:59:00,53.7,26.0,29.81,SSE,162,1.0,3.0,34,0.00,,SKC,0.00,VWS V14.01,2013-03-16 12:59:00,
2013-03-16 06:04:00,54.1,26.4,29.81,South,182,3.0,3.0,34,0.00,,SKC,0.00,VWS V14.01,2013-03-16 13:04:00,
2013-03-16 06:09:00,54.1,26.4,29.81,South,190,0.0,4.0,34,0.00,,SKC,0.00,VWS V14.01,2013-03-16 13:09:00,
2013-03-16 06:15:00,53.6,25.9,29.81,South,190,1.0,4.0,34,0.00,,SKC,0.00,VWS V14.01,2013-03-16 13:15:00,
2013-03-16 06:20:00,53.4,25.8,29.81,South,182,3.0,3.0,34,0.00,,SKC,0.00,VWS V14.01,2013-03-16 13:20:00,
2013-03-16 06:25:00,53.6,25.9,29.81,South,169,0.0,3.0,34,0.00,,SKC,0.00,VWS V14.01,2013-03-16 13:25:00,
2013-03-16 06:30:00,53.7,26.0,29.81,South,172,0.0,3.0,34,0.00,,SKC,0.00,VWS V14.01,2013-03-16 13:30:00,
2013-03-16 06:35:00,53.5,25.8,29.81,South,175,0.0,0.0,34,0.00,,SKC,0.00,VWS V14.01,2013-03-16 13:35:00,
2013-03-16 06:40:00,53.4,25.8,29.81,South,171,0.0,1.0,34,0.00,,SKC,0.00,VWS V14.01,2013-03-16 13:40:00,
2013-03-16 06:45:00,53.3,25.7,29.81,SSE,167,0.0,2.0,34,0.00,,SKC,0.00,VWS V14.01,2013-03-16 13:45:00,
2013-03-16 06:50:00,53.4,25.8,29.81,SSE,165,0.0,1.0,34,0.00,,SKC,0.00,VWS V14.01,2013-03-16 13:50:00,
2013-03-16 06:55:00,53.6,25.9,29.81,SSE,156,0.0,2.0,34,0.00,,SKC,0.00,VWS V14.01,2013-03-16 13:55:00,
2013-03-16 07:00:00,53.7,26.0,29.81,SSE,166,0.0,2.0,34,0.00,,SKC,0.00,VWS V14.01,2013-03-16 14:00:00,
2013-03-16 07:05:00,54.0,26.3,29.81,SSE,168,0.0,2.0,34,0.00,,SKC,0.00,VWS V14.01,2013-03-16 14:05:00,
2013-03-16 07:11:00,54.3,26.5,29.81,South,173,0.0,2.0,34,0.00,,SKC,0.00,VWS V14.01,2013-03-16 14:11:00,
2013-03-16 07:16:00,54.9,27.1,29.81,South,175,0.0,2.0,34,0.00,,SKC,0.00,VWS V14.01,2013-03-16 14:16:00,
2013-03-16 07:21:00,55.9,26.5,29.81,South,186,3.0,4.0,32,0.00,,SKC,0.00,VWS V14.01,2013-03-16 14:21:00,
2013-03-16 07:26:00,56.9,27.4,29.81,South,175,3.0,4.0,32,0.00,,SKC,0.00,VWS V14.01,2013-03-16 14:26:00,
2013-03-16 07:31:00,57.8,26.6,29.81,South,174,3.0,4.0,30,0.00,,SKC,0.00,VWS V14.01,2013-03-16 14:31:00,
2013-03-16 07:36:00,58.4,27.1,29.82,SSE,162,2.0,4.0,30,0.00,,SKC,0.00,VWS V14.01,2013-03-16 14:36:00,
2013-03-16 07:42:00,59.2,27.8,29.81,SSE,165,1.0,4.0,30,0.00,,SKC,0.00,VWS V14.01,2013-03-16 14:42:00,
2013-03-16 07:47:00,60.3,27.9,29.81,SSE,155,1.0,1.0,29,0.00,,SKC,0.00,VWS V14.01,2013-03-16 14:47:00,
2013-03-16 07:52:00,61.5,28.1,29.81,SSE,167,0.0,2.0,28,0.00,,SKC,0.00,VWS V14.01,2013-03-16 14:52:00,
2013-03-16 07:57:00,62.4,28.0,29.82,SSE,167,0.0,2.0,27,0.00,,SKC,0.00,VWS V14.01,2013-03-16 14:57:00,
2013-03-16 08:02:00,63.0,28.5,29.81,SSE,167,0.0,0.0,27,0.00,,SKC,0.00,VWS V14.01,2013-03-16 15:02:00,
2013-03-16 08:07:00,63.9,28.4,29.81,South,171,1.0,2.0,26,0.00,,SKC,0.00,VWS V14.01,2013-03-16 15:07:00,
2013-03-16 08:12:00,64.8,29.1,29.81,South,176,0.0,3.0,26,0.00,,SKC,0.00,VWS V14.01,2013-03-16 15:12:00,
2013-03-16 08:17:00,65.3,28.6,29.81,South,184,1.0,3.0,25,0.00,,SKC,0.00,VWS V14.01,2013-03-16 15:17:00,
2013-03-16 08:22:00,66.2,29.4,29.81,South,186,1.0,3.0,25,0.00,,SKC,0.00,VWS V14.01,2013-03-16 15:22:00,
2013-03-16 08:27:00,67.2,29.2,29.81,South,186,0.0,3.0,24,0.00,,SKC,0.00,VWS V14.01,2013-03-16 15:27:00,
2013-03-16 08:32:00,67.6,29.6,29.81,SSW,192,0.0,2.0,24,0.00,,SKC,0.00,VWS V14.01,2013-03-16 15:32:00,
2013-03-16 08:37:00,68.3,29.1,29.82,SSW,193,0.0,4.0,23,0.00,,SKC,0.00,VWS V14.01,2013-03-16 15:37:00,
2013-03-16 08:42:00,68.4,29.2,29.81,South,188,1.0,5.0,23,0.00,,SKC,0.00,VWS V14.01,2013-03-16 15:42:00,
2013-03-16 08:47:00,68.9,29.6,29.82,South,187,2.0,2.0,23,0.00,,SKC,0.00,VWS V14.01,2013-03-16 15:47:00,
2013-03-16 08:53:00,69.8,29.3,29.82,South,175,2.0,4.0,22,0.00,,SKC,0.00,VWS V14.01,2013-03-16 15:53:00,
2013-03-16 08:58:00,70.1,29.5,29.82,South,191,1.0,5.0,22,0.00,,SKC,0.00,VWS V14.01,2013-03-16 15:58:00,
2013-03-16 09:03:00,70.7,28.9,29.82,South,182,0.0,3.0,21,0.00,,SKC,0.00,VWS V14.01,2013-03-16 16:03:00,
2013-03-16 09:08:00,71.7,29.7,29.82,South,188,0.0,3.0,21,0.00,,SKC,0.00,VWS V14.01,2013-03-16 16:08:00,
2013-03-16 09:13:00,72.4,30.3,29.82,SSW,212,5.0,5.0,21,0.00,,SKC,0.00,VWS V14.01,2013-03-16 16:13:00,
2013-03-16 09:18:00,72.6,30.5,29.82,South,181,1.0,6.0,21,0.00,,SKC,0.00,VWS V14.01,2013-03-16 16:18:00,
2013-03-16 09:24:00,73.1,29.7,29.82,South,176,2.0,6.0,20,0.00,,SKC,0.00,VWS V14.01,2013-03-16 16:24:00,
2013-03-16 09:29:00,73.8,30.3,29.82,SSE,157,0.0,7.0,20,0.00,,SKC,0.00,VWS V14.01,2013-03-16 16:29:00,
2013-03-16 09:34:00,74.8,31.1,29.82,SSE,148,0.0,6.0,20,0.00,,SKC,0.00,VWS V14.01,2013-03-16 16:34:00,
2013-03-16 09:39:00,75.1,31.3,29.81,SE,146,1.0,7.0,20,0.00,,SKC,0.00,VWS V14.01,2013-03-16 16:39:00,
2013-03-16 09:44:00,75.8,30.6,29.81,South,180,1.0,7.0,19,0.00,,SKC,0.00,VWS V14.01,2013-03-16 16:44:00,
2013-03-16 09:49:00,76.6,31.3,29.81,SSE,149,0.0,4.0,19,0.00,,SKC,0.00,VWS V14.01,2013-03-16 16:49:00,
2013-03-16 09:54:00,77.2,30.5,29.81,SSE,155,1.0,7.0,18,0.00,,SKC,0.00,VWS V14.01,2013-03-16 16:54:00,
2013-03-16 09:59:00,78.0,31.1,29.81,SSE,150,2.0,7.0,18,0.00,,SKC,0.00,VWS V14.01,2013-03-16 16:59:00,
2013-03-16 10:04:00,78.7,31.7,29.81,SSE,164,3.0,5.0,18,0.00,,SKC,0.00,VWS V14.01,2013-03-16 17:04:00,
2013-03-16 10:09:00,79.3,30.8,29.80,SE,144,0.0,5.0,17,0.00,,SKC,0.00,VWS V14.01,2013-03-16 17:09:00,
2013-03-16 10:14:00,80.0,31.3,29.80,SSE,151,1.0,5.0,17,0.00,,SKC,0.00,VWS V14.01,2013-03-16 17:14:00,
2013-03-16 10:20:00,80.6,30.3,29.80,SE,129,0.0,3.0,16,0.00,,SKC,0.00,VWS V14.01,2013-03-16 17:20:00,
2013-03-16 10:25:00,81.0,30.6,29.80,SE,143,1.0,3.0,16,0.00,,SKC,0.00,VWS V14.01,2013-03-16 17:25:00,
2013-03-16 10:30:00,80.8,32.0,29.80,SSE,165,3.0,5.0,17,0.00,,SKC,0.00,VWS V14.01,2013-03-16 17:30:00,
2013-03-16 10:35:00,81.1,30.7,29.79,WSW,246,2.0,2.0,16,0.00,,SKC,0.00,VWS V14.01,2013-03-16 17:35:00,
2013-03-16 10:40:00,81.3,30.9,29.79,SW,234,0.0,5.0,16,0.00,,SKC,0.00,VWS V14.01,2013-03-16 17:40:00,
2013-03-16 10:45:00,81.6,31.1,29.79,SW,227,0.0,5.0,16,0.00,,SKC,0.00,VWS V14.01,2013-03-16 17:45:00,
2013-03-16 10:50:00,81.9,31.4,29.78,SW,229,0.0,1.0,16,0.00,,SKC,0.00,VWS V14.01,2013-03-16 17:50:00,
2013-03-16 10:55:00,82.0,31.4,29.78,NNW,333,0.0,2.0,16,0.00,,SKC,0.00,VWS V14.01,2013-03-16 17:55:00,
2013-03-16 11:00:00,82.1,31.5,29.78,NNW,333,3.0,4.0,16,0.00,,SKC,0.00,VWS V14.01,2013-03-16 18:00:00,
2013-03-16 11:05:00,82.3,31.7,29.78,NNW,333,0.0,2.0,16,0.00,,SKC,0.00,VWS V14.01,2013-03-16 18:05:00,
2013-03-16 11:10:00,82.9,32.2,29.78,WNW,300,0.0,6.0,16,0.00,,SKC,0.00,VWS V14.01,2013-03-16 18:10:00,
2013-03-16 11:15:00,83.9,31.4,29.78,NE,41,0.0,6.0,15,0.00,,SKC,0.00,VWS V14.01,2013-03-16 18:15:00,
2013-03-16 11:20:00,83.9,31.4,29.78,West,264,0.0,7.0,15,0.00,,SKC,0.00,VWS V14.01,2013-03-16 18:20:00,
2013-03-16 11:25:00,84.2,31.6,29.78,NNE,14,2.0,7.0,15,0.00,,SKC,0.00,VWS V14.01,2013-03-16 18:25:00,
2013-03-16 11:30:00,84.0,31.4,29.78,NNE,22,0.0,7.0,15,0.00,,SKC,0.00,VWS V14.01,2013-03-16 18:30:00,
2013-03-16 11:35:00,84.0,31.4,29.77,WNW,300,2.0,2.0,15,0.00,,SKC,0.00,VWS V14.01,2013-03-16 18:35:00,
2013-03-16 11:41:00,83.8,31.3,29.77,West,273,0.0,4.0,15,0.00,,SKC,0.00,VWS V14.01,2013-03-16 18:41:00,
2013-03-16 11:46:00,83.7,31.2,29.77,SW,225,0.0,4.0,15,0.00,,SKC,0.00,VWS V14.01,2013-03-16 18:46:00,
2013-03-16 11:51:00,83.8,31.3,29.76,WNW,298,0.0,7.0,15,0.00,,SKC,0.00,VWS V14.01,2013-03-16 18:51:00,
2013-03-16 11:56:00,84.3,31.7,29.76,East,86,0.0,7.0,15,0.00,,SKC,0.00,VWS V14.01,2013-03-16 18:56:00,
2013-03-16 12:02:00,84.6,30.2,29.76,West,260,3.0,7.0,14,0.00,,SKC,0.00,VWS V14.01,2013-03-16 19:02:00,
2013-03-16 12:07:00,84.2,29.9,29.76,WSW,246,0.0,5.0,14,0.00,,SKC,0.00,VWS V14.01,2013-03-16 19:07:00,
2013-03-16 12:12:00,85.1,30.6,29.75,NNW,328,7.0,7.0,14,0.00,,SKC,0.00,VWS V14.01,2013-03-16 19:12:00,
2013-03-16 12:17:00,85.4,30.8,29.75,North,9,0.0,0.0,14,0.00,,SKC,0.00,VWS V14.01,2013-03-16 19:17:00,
2013-03-16 12:22:00,85.1,30.6,29.75,WNW,302,4.0,9.0,14,0.00,,SKC,0.00,VWS V14.01,2013-03-16 19:22:00,
2013-03-16 12:27:00,85.7,31.1,29.75,WNW,294,0.0,9.0,14,0.00,,SKC,0.00,VWS V14.01,2013-03-16 19:27:00,
2013-03-16 12:32:00,85.9,31.2,29.74,NNW,338,0.0,3.0,14,0.00,,SKC,0.00,VWS V14.01,2013-03-16 19:32:00,
2013-03-16 12:37:00,86.7,30.0,29.74,NW,314,6.0,6.0,13,0.00,,SKC,0.00,VWS V14.01,2013-03-16 19:37:00,
2013-03-16 12:42:00,87.2,28.5,29.74,WSW,242,4.0,12.0,12,0.00,,SKC,0.00,VWS V14.01,2013-03-16 19:42:00,
2013-03-16 12:47:00,86.7,28.1,29.73,WNW,292,2.0,2.0,12,0.00,,SKC,0.00,VWS V14.01,2013-03-16 19:47:00,
2013-03-16 12:52:00,87.1,28.4,29.73,North,9,4.0,8.0,12,0.00,,SKC,0.00,VWS V14.01,2013-03-16 19:52:00,
2013-03-16 12:58:00,87.7,30.8,29.73,NNW,342,7.0,8.0,13,0.00,,SKC,0.00,VWS V14.01,2013-03-16 19:58:00,
2013-03-16 13:03:00,87.7,26.7,29.72,WNW,288,4.0,8.0,11,0.00,,SKC,0.00,VWS V14.01,2013-03-16 20:03:00,
2013-03-16 13:08:00,87.9,29.0,29.72,West,273,5.0,14.0,12,0.00,,SKC,0.00,VWS V14.01,2013-03-16 20:08:00,
2013-03-16 13:13:00,88.2,29.2,29.72,WNW,294,5.0,14.0,12,0.00,,SKC,0.00,VWS V14.01,2013-03-16 20:13:00,
2013-03-16 13:18:00,88.0,29.1,29.72,West,273,5.0,8.0,12,0.00,,SKC,0.00,VWS V14.01,2013-03-16 20:18:00,
2013-03-16 13:23:00,88.3,27.2,29.71,NNW,335,8.0,13.0,11,0.00,,SKC,0.00,VWS V14.01,2013-03-16 20:23:00,
2013-03-16 13:28:00,87.9,26.9,29.71,WNW,295,8.0,13.0,11,0.00,,SKC,0.00,VWS V14.01,2013-03-16 20:28:00,
2013-03-16 13:34:00,87.9,26.9,29.71,West,267,14.0,14.0,11,0.00,,SKC,0.00,VWS V14.01,2013-03-16 20:34:00,
2013-03-16 13:39:00,87.6,26.7,29.70,WSW,255,6.0,14.0,11,0.00,,SKC,0.00,VWS V14.01,2013-03-16 20:39:00,
2013-03-16 13:44:00,88.0,27.0,29.70,WSW,255,9.0,14.0,11,0.00,,SKC,0.00,VWS V14.01,2013-03-16 20:44:00,
2013-03-16 13:49:00,87.7,26.7,29.70,WNW,286,0.0,16.0,11,0.00,,SKC,0.00,VWS V14.01,2013-03-16 20:49:00,
2013-03-16 13:54:00,88.0,27.0,29.70,WSW,240,11.0,16.0,11,0.00,,SKC,0.00,VWS V14.01,2013-03-16 20:54:00,
2013-03-16 13:59:00,88.1,27.0,29.69,WSW,252,11.0,16.0,11,0.00,,SKC,0.00,VWS V14.01,2013-03-16 20:59:00,
2013-03-16 14:05:00,88.7,27.5,29.69,West,281,9.0,16.0,11,0.00,,SKC,0.00,VWS V14.01,2013-03-16 21:05:00,
2013-03-16 14:10:00,88.8,29.7,29.69,West,275,5.0,16.0,12,0.00,,SKC,0.00,VWS V14.01,2013-03-16 21:10:00,
2013-03-16 14:15:00,88.5,27.4,29.69,SW,234,8.0,16.0,11,0.00,,SKC,0.00,VWS V14.01,2013-03-16 21:15:00,
2013-03-16 14:20:00,88.0,27.0,29.68,NW,306,12.0,18.0,11,0.00,,SKC,0.00,VWS V14.01,2013-03-16 21:20:00,
2013-03-16 14:25:00,88.0,27.0,29.68,WSW,252,2.0,18.0,11,0.00,,SKC,0.00,VWS V14.01,2013-03-16 21:25:00,
2013-03-16 14:30:00,88.7,27.5,29.68,WNW,288,0.0,18.0,11,0.00,,SKC,0.00,VWS V14.01,2013-03-16 21:30:00,
2013-03-16 14:35:00,88.9,27.7,29.68,West,272,6.0,14.0,11,0.00,,SKC,0.00,VWS V14.01,2013-03-16 21:35:00,
2013-03-16 14:40:00,89.2,25.6,29.68,NNW,337,4.0,14.0,10,0.00,,SKC,0.00,VWS V14.01,2013-03-16 21:40:00,
2013-03-16 14:45:00,88.7,25.2,29.67,NW,316,14.0,19.0,10,0.00,,SKC,0.00,VWS V14.01,2013-03-16 21:45:00,
2013-03-16 14:50:00,87.7,24.5,29.67,NW,315,9.0,20.0,10,0.00,,SKC,0.00,VWS V14.01,2013-03-16 21:50:00,
2013-03-16 14:55:00,87.7,26.7,29.67,North,351,13.0,20.0,11,0.00,,SKC,0.00,VWS V14.01,2013-03-16 21:55:00,
2013-03-16 15:00:00,88.1,27.0,29.67,NW,307,12.0,20.0,11,0.00,,SKC,0.00,VWS V14.01,2013-03-16 22:00:00,
2013-03-16 15:05:00,88.0,27.0,29.67,WNW,302,12.0,12.0,11,0.00,,SKC,0.00,VWS V14.01,2013-03-16 22:05:00,
2013-03-16 15:10:00,88.4,27.3,29.67,WNW,296,8.0,13.0,11,0.00,,SKC,0.00,VWS V14.01,2013-03-16 22:10:00,
2013-03-16 15:16:00,88.5,27.4,29.67,NNW,338,6.0,13.0,11,0.00,,SKC,0.00,VWS V14.01,2013-03-16 22:16:00,
2013-03-16 15:21:00,88.7,27.5,29.67,West,279,17.0,18.0,11,0.00,,SKC,0.00,VWS V14.01,2013-03-16 22:21:00,
2013-03-16 15:26:00,88.3,24.9,29.66,NNW,338,10.0,18.0,10,0.00,,SKC,0.00,VWS V14.01,2013-03-16 22:26:00,
2013-03-16 15:31:00,88.1,24.8,29.66,West,272,15.0,18.0,10,0.00,,SKC,0.00,VWS V14.01,2013-03-16 22:31:00,
2013-03-16 15:36:00,88.1,24.8,29.66,NNW,332,12.0,15.0,10,0.00,,SKC,0.00,VWS V14.01,2013-03-16 22:36:00,
2013-03-16 15:42:00,87.7,26.7,29.66,West,280,5.0,16.0,11,0.00,,SKC,0.00,VWS V14.01,2013-03-16 22:42:00,
2013-03-16 15:47:00,88.1,27.0,29.66,West,259,5.0,16.0,11,0.00,,SKC,0.00,VWS V14.01,2013-03-16 22:47:00,
2013-03-16 15:52:00,88.3,27.2,29.66,West,264,11.0,14.0,11,0.00,,SKC,0.00,VWS V14.01,2013-03-16 22:52:00,
2013-03-16 15:57:00,88.0,27.0,29.66,WNW,283,5.0,14.0,11,0.00,,SKC,0.00,VWS V14.01,2013-03-16 22:57:00,
2013-03-16 16:02:00,88.0,27.0,29.66,NW,311,6.0,6.0,11,0.00,,SKC,0.00,VWS V14.01,2013-03-16 23:02:00,
2013-03-16 16:07:00,87.8,26.8,29.65,SW,234,8.0,11.0,11,0.00,,SKC,0.00,VWS V14.01,2013-03-16 23:07:00,
2013-03-16 16:12:00,87.7,26.7,29.65,WNW,286,11.0,16.0,11,0.00,,SKC,0.00,VWS V14.01,2013-03-16 23:12:00,
2013-03-16 16:17:00,87.6,24.4,29.65,NNW,338,12.0,12.0,10,0.00,,SKC,0.00,VWS V14.01,2013-03-16 23:17:00,
2013-03-16 16:22:00,87.7,24.5,29.65,West,276,5.0,15.0,10,0.00,,SKC,0.00,VWS V14.01,2013-03-16 23:22:00,
2013-03-16 16:27:00,87.6,24.4,29.66,West,268,8.0,15.0,10,0.00,,SKC,0.00,VWS V14.01,2013-03-16 23:27:00,
2013-03-16 16:33:00,87.4,24.2,29.66,WNW,284,10.0,15.0,10,0.00,,SKC,0.00,VWS V14.01,2013-03-16 23:33:00,
2013-03-16 16:38:00,87.3,24.1,29.66,West,279,18.0,18.0,10,0.00,,SKC,0.00,VWS V14.01,2013-03-16 23:38:00,
2013-03-16 16:43:00,87.5,24.3,29.66,West,280,8.0,18.0,10,0.00,,SKC,0.00,VWS V14.01,2013-03-16 23:43:00,
2013-03-16 16:48:00,87.1,24.0,29.66,WNW,298,9.0,13.0,10,0.00,,SKC,0.00,VWS V14.01,2013-03-16 23:48:00,
2013-03-16 16:53:00,87.0,26.2,29.66,WNW,289,11.0,14.0,11,0.00,,SKC,0.00,VWS V14.01,2013-03-16 23:53:00,
2013-03-16 16:58:00,86.1,25.5,29.66,NW,314,15.0,20.0,11,0.00,,SKC,0.00,VWS V14.01,2013-03-16 23:58:00,
2013-03-16 17:03:00,85.8,25.3,29.66,NW,307,14.0,21.0,11,0.00,,SKC,0.00,VWS V14.01,2013-03-17 00:03:00,
2013-03-16 17:09:00,85.6,27.2,29.66,NW,313,13.0,21.0,12,0.00,,SKC,0.00,VWS V14.01,2013-03-17 00:09:00,
2013-03-16 17:14:00,85.6,25.1,29.66,NW,309,8.0,21.0,11,0.00,,SKC,0.00,VWS V14.01,2013-03-17 00:14:00,
2013-03-16 17:19:00,85.4,25.0,29.67,NW,318,11.0,15.0,11,0.00,,SKC,0.00,VWS V14.01,2013-03-17 00:19:00,
2013-03-16 17:24:00,85.0,26.8,29.67,NW,322,12.0,16.0,12,0.00,,SKC,0.00,VWS V14.01,2013-03-17 00:24:00,
2013-03-16 17:29:00,84.5,24.3,29.66,NW,326,8.0,23.0,11,0.00,,SKC,0.00,VWS V14.01,2013-03-17 00:29:00,
2013-03-16 17:34:00,84.4,24.2,29.67,WNW,284,13.0,16.0,11,0.00,,SKC,0.00,VWS V14.01,2013-03-17 00:34:00,
2013-03-16 17:39:00,84.3,24.1,29.67,NW,322,10.0,16.0,11,0.00,,SKC,0.00,VWS V14.01,2013-03-17 00:39:00,
2013-03-16 17:44:00,83.9,23.8,29.67,NW,311,7.0,18.0,11,0.00,,SKC,0.00,VWS V14.01,2013-03-17 00:44:00,
2013-03-16 17:49:00,83.6,23.6,29.68,NNW,347,15.0,16.0,11,0.00,,SKC,0.00,VWS V14.01,2013-03-17 00:49:00,
2013-03-16 17:54:00,83.3,23.4,29.68,NW,317,12.0,19.0,11,0.00,,SKC,0.00,VWS V14.01,2013-03-17 00:54:00,
2013-03-16 17:59:00,83.0,23.1,29.68,NW,317,8.0,19.0,11,0.00,,SKC,0.00,VWS V14.01,2013-03-17 00:59:00,
2013-03-16 18:04:00,82.7,22.9,29.68,NW,318,11.0,17.0,11,0.00,,SKC,0.00,VWS V14.01,2013-03-17 01:04:00,
2013-03-16 18:09:00,82.3,22.6,29.68,NNW,331,12.0,19.0,11,0.00,,SKC,0.00,VWS V14.01,2013-03-17 01:09:00,
2013-03-16 18:15:00,81.9,22.3,29.68,NW,309,11.0,19.0,11,0.00,,SKC,0.00,VWS V14.01,2013-03-17 01:15:00,
2013-03-16 18:20:00,81.4,21.9,29.69,NW,325,11.0,16.0,11,0.00,,SKC,0.00,VWS V14.01,2013-03-17 01:20:00,
2013-03-16 18:25:00,80.9,21.5,29.69,NNW,337,6.0,16.0,11,0.00,,SKC,0.00,VWS V14.01,2013-03-17 01:25:00,
2013-03-16 18:30:00,80.4,23.2,29.69,NNW,333,6.0,16.0,12,0.00,,SKC,0.00,VWS V14.01,2013-03-17 01:30:00,
2013-03-16 18:35:00,79.8,22.7,29.69,NNW,338,7.0,17.0,12,0.00,,SKC,0.00,VWS V14.01,2013-03-17 01:35:00,
2013-03-16 18:40:00,79.5,22.5,29.69,NNW,327,5.0,17.0,12,0.00,,SKC,0.00,VWS V14.01,2013-03-17 01:40:00,
2013-03-16 18:45:00,79.1,24.1,29.69,WNW,290,10.0,17.0,13,0.00,,SKC,0.00,VWS V14.01,2013-03-17 01:45:00,
2013-03-16 18:50:00,78.9,23.9,29.70,NW,315,3.0,10.0,13,0.00,,SKC,0.00,VWS V14.01,2013-03-17 01:50:00,
2013-03-16 18:55:00,78.6,25.5,29.70,NW,319,3.0,10.0,14,0.00,,SKC,0.00,VWS V14.01,2013-03-17 01:55:00,
2013-03-16 19:00:00,78.2,26.8,29.70,WSW,257,8.0,10.0,15,0.00,,SKC,0.00,VWS V14.01,2013-03-17 02:00:00,
2013-03-16 19:05:00,77.9,26.6,29.70,NNW,330,5.0,9.0,15,0.00,,SKC,0.00,VWS V14.01,2013-03-17 02:05:00,
2013-03-16 19:10:00,77.6,26.3,29.70,NW,313,9.0,12.0,15,0.00,,SKC,0.00,VWS V14.01,2013-03-17 02:10:00,
2013-03-16 19:15:00,77.3,26.1,29.70,NNW,341,7.0,12.0,15,0.00,,SKC,0.00,VWS V14.01,2013-03-17 02:15:00,
2013-03-16 19:21:00,77.2,27.6,29.70,WNW,294,5.0,10.0,16,0.00,,SKC,0.00,VWS V14.01,2013-03-17 02:21:00,
2013-03-16 19:27:00,77.0,27.4,29.70,WNW,298,6.0,10.0,16,0.00,,SKC,0.00,VWS V14.01,2013-03-17 02:27:00,
2013-03-16 19:32:00,76.6,28.6,29.71,NW,311,5.0,5.0,17,0.00,,SKC,0.00,VWS V14.01,2013-03-17 02:32:00,
2013-03-16 19:37:00,76.2,28.2,29.71,West,267,0.0,7.0,17,0.00,,SKC,0.00,VWS V14.01,2013-03-17 02:37:00,
2013-03-16 19:42:00,75.7,27.8,29.71,WNW,301,4.0,8.0,17,0.00,,SKC,0.00,VWS V14.01,2013-03-17 02:42:00,
2013-03-16 19:47:00,75.3,27.5,29.71,NNW,336,6.0,6.0,17,0.00,,SKC,0.00,VWS V14.01,2013-03-17 02:47:00,
2013-03-16 19:52:00,75.2,28.8,29.71,WNW,292,5.0,8.0,18,0.00,,SKC,0.00,VWS V14.01,2013-03-17 02:52:00,
2013-03-16 19:57:00,75.0,28.7,29.71,WNW,294,6.0,8.0,18,0.00,,SKC,0.00,VWS V14.01,2013-03-17 02:57:00,
2013-03-16 20:02:00,74.8,28.5,29.72,NW,311,0.0,6.0,18,0.00,,SKC,0.00,VWS V14.01,2013-03-17 03:02:00,
2013-03-16 20:07:00,74.5,28.2,29.72,WNW,303,5.0,6.0,18,0.00,,SKC,0.00,VWS V14.01,2013-03-17 03:07:00,
2013-03-16 20:12:00,74.3,28.1,29.72,NW,317,3.0,7.0,18,0.00,,SKC,0.00,VWS V14.01,2013-03-17 03:12:00,
2013-03-16 20:17:00,74.1,27.9,29.72,NW,324,0.0,2.0,18,0.00,,SKC,0.00,VWS V14.01,2013-03-17 03:17:00,
2013-03-16 20:23:00,73.8,27.7,29.72,NW,321,0.0,2.0,18,0.00,,SKC,0.00,VWS V14.01,2013-03-17 03:23:00,
2013-03-16 20:28:00,73.4,28.7,29.72,NW,321,0.0,2.0,19,0.00,,SKC,0.00,VWS V14.01,2013-03-17 03:28:00,
2013-03-16 20:33:00,72.9,28.3,29.73,NW,321,0.0,0.0,19,0.00,,SKC,0.00,VWS V14.01,2013-03-17 03:33:00,
2013-03-16 20:38:00,72.4,27.9,29.73,NW,321,0.0,0.0,19,0.00,,SKC,0.00,VWS V14.01,2013-03-17 03:38:00,
2013-03-16 20:43:00,71.3,27.0,29.74,NNE,30,2.0,2.0,19,0.00,,SKC,0.00,VWS V14.01,2013-03-17 03:43:00,
2013-03-16 20:48:00,70.5,27.5,29.74,East,94,3.0,6.0,20,0.00,,SKC,0.00,VWS V14.01,2013-03-17 03:48:00,
2013-03-16 20:53:00,70.5,27.5,29.74,West,277,0.0,6.0,20,0.00,,SKC,0.00,VWS V14.01,2013-03-17 03:53:00,
2013-03-16 20:58:00,70.9,27.9,29.74,NW,305,0.0,9.0,20,0.00,,SKC,0.00,VWS V14.01,2013-03-17 03:58:00,
2013-03-16 21:00:00,71.1,28.0,29.74,NW,304,0.0,9.0,20,0.00,,SKC,0.00,VWS V14.01,2013-03-17 04:00:00,
2013-03-16 21:01:00,71.1,28.0,29.74,NW,306,0.0,9.0,20,0.00,,SKC,0.00,VWS V14.01,2013-03-17 04:01:00,
2013-03-16 21:06:00,71.2,26.9,29.74,NW,306,0.0,3.0,19,0.00,,SKC,0.00,VWS V14.01,2013-03-17 04:06:00,
2013-03-16 21:11:00,71.0,26.7,29.75,NW,306,0.0,3.0,19,0.00,,SKC,0.00,VWS V14.01,2013-03-17 04:11:00,
2013-03-16 21:16:00,70.6,27.6,29.75,NW,306,0.0,3.0,20,0.00,,SKC,0.00,VWS V14.01,2013-03-17 04:16:00,
2013-03-16 21:21:00,70.2,27.3,29.75,NW,306,0.0,0.0,20,0.00,,SKC,0.00,VWS V14.01,2013-03-17 04:21:00,
2013-03-16 21:26:00,69.2,26.5,29.75,ENE,69,0.0,1.0,20,0.00,,SKC,0.00,VWS V14.01,2013-03-17 04:26:00,
2013-03-16 21:31:00,68.2,26.8,29.75,ENE,71,3.0,5.0,21,0.00,,SKC,0.00,VWS V14.01,2013-03-17 04:31:00,
2013-03-16 21:36:00,68.6,27.1,29.75,NE,56,0.0,7.0,21,0.00,,SKC,0.00,VWS V14.01,2013-03-17 04:36:00,
2013-03-16 21:42:00,69.8,27.0,29.76,WNW,284,6.0,9.0,20,0.00,,SKC,0.00,VWS V14.01,2013-03-17 04:42:00,
2013-03-16 21:47:00,70.6,27.6,29.76,WNW,301,0.0,9.0,20,0.00,,SKC,0.00,VWS V14.01,2013-03-17 04:47:00,
2013-03-16 21:52:00,70.4,27.5,29.76,WNW,300,0.0,0.0,20,0.00,,SKC,0.00,VWS V14.01,2013-03-17 04:52:00,
2013-03-16 21:57:00,69.9,27.0,29.76,NW,306,0.0,0.0,20,0.00,,SKC,0.00,VWS V14.01,2013-03-17 04:57:00,
2013-03-16 22:02:00,69.3,26.5,29.76,ENE,61,0.0,0.0,20,0.00,,SKC,0.00,VWS V14.01,2013-03-17 05:02:00,
2013-03-16 22:08:00,68.8,27.3,29.76,NE,53,0.0,3.0,21,0.00,,SKC,0.00,VWS V14.01,2013-03-17 05:08:00,
2013-03-16 22:13:00,69.0,27.5,29.76,NE,40,2.0,3.0,21,0.00,,SKC,0.00,VWS V14.01,2013-03-17 05:13:00,
2013-03-16 22:18:00,69.6,26.8,29.76,NW,318,0.0,1.0,20,0.00,,SKC,0.00,VWS V14.01,2013-03-17 05:18:00,
2013-03-16 22:23:00,69.8,27.0,29.77,NNW,331,4.0,4.0,20,0.00,,SKC,0.00,VWS V14.01,2013-03-17 05:23:00,
2013-03-16 22:28:00,69.6,26.8,29.77,NNW,331,0.0,4.0,20,0.00,,SKC,0.00,VWS V14.01,2013-03-17 05:28:00,
2013-03-16 22:33:00,68.9,27.4,29.77,NNW,331,0.0,2.0,21,0.00,,SKC,0.00,VWS V14.01,2013-03-17 05:33:00,
2013-03-16 22:38:00,67.8,26.5,29.77,NNW,332,0.0,2.0,21,0.00,,SKC,0.00,VWS V14.01,2013-03-17 05:38:00,
2013-03-16 22:44:00,67.0,26.9,29.77,NNW,333,0.0,2.0,22,0.00,,SKC,0.00,VWS V14.01,2013-03-17 05:44:00,
2013-03-16 22:49:00,65.6,25.8,29.77,ENE,74,1.0,5.0,22,0.00,,SKC,0.00,VWS V14.01,2013-03-17 05:49:00,
2013-03-16 22:54:00,64.2,25.7,29.77,ENE,74,5.0,5.0,23,0.00,,SKC,0.00,VWS V14.01,2013-03-17 05:54:00,
2013-03-16 22:59:00,63.7,26.3,29.77,ENE,71,2.0,5.0,24,0.00,,SKC,0.00,VWS V14.01,2013-03-17 05:59:00,
2013-03-16 23:04:00,63.5,26.1,29.77,ENE,69,2.0,5.0,24,0.00,,SKC,0.00,VWS V14.01,2013-03-17 06:04:00,
2013-03-16 23:10:00,63.1,25.8,29.77,ENE,69,0.0,5.0,24,0.00,,SKC,0.00,VWS V14.01,2013-03-17 06:10:00,
2013-03-16 23:15:00,62.9,25.6,29.77,ENE,69,2.0,5.0,24,0.00,,SKC,0.00,VWS V14.01,2013-03-17 06:15:00,
2013-03-16 23:20:00,62.7,25.4,29.77,ENE,78,2.0,3.0,24,0.00,,SKC,0.00,VWS V14.01,2013-03-17 06:20:00,
2013-03-16 23:25:00,62.4,26.1,29.77,ENE,78,0.0,3.0,25,0.00,,SKC,0.00,VWS V14.01,2013-03-17 06:25:00,
2013-03-16 23:30:00,62.3,26.1,29.77,ENE,78,1.0,4.0,25,0.00,,SKC,0.00,VWS V14.01,2013-03-17 06:30:00,
2013-03-16 23:35:00,62.5,25.2,29.77,ENE,78,2.0,2.0,24,0.00,,SKC,0.00,VWS V14.01,2013-03-17 06:35:00,
2013-03-16 23:40:00,62.5,25.2,29.77,ENE,78,2.0,2.0,24,0.00,,SKC,0.00,VWS V14.01,2013-03-17 06:40:00,
2013-03-16 23:45:00,62.3,26.1,29.77,ENE,78,1.0,3.0,25,0.00,,SKC,0.00,VWS V14.01,2013-03-17 06:45:00,
2013-03-16 23:50:00,61.8,25.6,29.76,East,80,0.0,1.0,25,0.00,,SKC,0.00,VWS V14.01,2013-03-17 06:50:00,
2013-03-16 23:55:00,61.5,25.4,29.76,East,80,0.0,1.0,25,0.00,,SKC,0.00,VWS V14.01,2013-03-17 06:55:00,